G4RHR Weather Reports


time (UTC)temp
C
wind
direction
speed
KPH
gust
KPH
rain 1hr
cm
rain 24hr
cm
rain mn
cm
humidity
%
barometer
mb
20260506044800 6 360 3.2 12.9 0.00 0.00 0.00 89 1010.1
20260506043900 6 360 3.2 8.0 0.00 0.00 0.00 89 1010.2
20260506043000 6 360 4.8 12.9 0.00 0.00 0.00 89 1010.1
20260506042101 6 360 4.8 9.7 0.00 0.00 0.00 89 1010.1
20260506041201 6 360 4.8 12.9 0.00 0.00 0.00 89 1010.2
20260506040301 7 360 4.8 12.9 0.00 0.00 0.00 88 1010.1
20260506035400 7 360 4.8 9.7 0.00 0.00 0.00 88 1010.1
20260506034500 7 360 4.8 14.5 0.00 0.00 0.00 87 1010.2
20260506033600 7 360 4.8 16.1 0.00 0.00 0.00 87 1010.2
20260506032700 7 360 6.4 12.9 0.00 0.00 0.00 87 1010.4
20260506031801 7 360 6.4 14.5 0.00 0.00 0.00 87 1010.4
20260506030900 7 360 4.8 14.5 0.00 0.00 0.00 87 1010.4
20260506030001 7 360 4.8 12.9 0.00 0.00 0.00 87 1010.5
20260506025313 7 360 6.4 17.7 0.00 0.00 0.00 86 1010.6
20260506024415 8 360 6.4 16.1 0.00 0.00 0.00 86 1010.6
20260506023301 8 360 4.8 16.1 0.00 0.00 0.00 87 1010.7
20260506022400 8 360 6.4 17.7 0.00 0.00 0.00 87 1010.7
20260506021501 8 360 6.4 17.7 0.00 0.00 0.00 88 1010.8
20260506020601 8 360 6.4 16.1 0.00 0.00 0.00 89 1010.8
20260506015701 8 360 4.8 14.5 0.00 0.00 0.00 89 1010.8
20260506014800 8 360 3.2 9.7 0.00 0.00 0.00 89 1010.9
20260506013900 8 360 3.2 6.4 0.00 0.00 0.00 88 1010.8
20260506013214 8 360 3.2 9.7 0.00 0.00 0.00 88 1010.8
20260506012103 8 360 4.8 14.5 0.00 0.00 0.00 88 1010.9
20260506011200 8 360 6.4 16.1 0.00 0.00 0.00 89 1011.0
20260506010511 8 360 6.4 16.1 0.00 0.00 0.00 89 1011.0
20260506005614 8 360 6.4 12.9 0.00 0.00 0.00 89 1011.0
20260506004500 8 360 6.4 14.5 0.00 0.00 0.00 90 1011.1
20260506003603 8 360 6.4 12.9 0.00 0.00 0.00 89 1011.2
20260506002703 8 360 4.8 12.9 0.00 0.00 0.00 89 1011.2
20260506001801 8 360 4.8 14.5 0.00 0.00 0.00 89 1011.2
20260506000900 8 360 3.2 9.7 0.00 0.00 0.00 89 1011.3
20260506000212 8 351 4.8 11.3 0.00 0.00 0.00 88 1011.3
20260505235315 8 355 6.4 12.9 0.00 0.00 0.00 88 1011.2
20260505234200 8 351 6.4 12.9 0.00 0.00 0.00 88 1011.2
20260505233301 8 357 6.4 12.9 0.00 0.00 0.00 88 1011.2
20260505232617 8 360 6.4 12.9 0.00 0.00 0.00 88 1011.3
20260505231500 8 12 4.8 9.7 0.00 0.00 0.00 87 1011.4
20260505230600 8 10 4.8 12.9 0.00 0.00 0.00 87 1011.5
20260505225703 8 12 4.8 12.9 0.00 0.00 0.00 86 1011.5
20260505224801 9 17 4.8 12.9 0.00 0.00 0.00 86 1011.5
20260505224114 9 20 4.8 14.5 0.00 0.00 0.00 85 1011.5
20260505223001 9 12 3.2 11.3 0.00 0.00 0.00 85 1011.6
20260505222100 9 11 6.4 12.9 0.00 0.00 0.00 85 1011.6
20260505221201 9 8 6.4 14.5 0.00 0.00 0.00 84 1011.5
20260505220301 9 9 4.8 14.5 0.00 0.00 0.00 84 1011.4
20260505215400 10 6 4.8 11.3 0.00 0.00 0.00 84 1011.4
20260505214713 10 7 4.8 12.9 0.00 0.00 0.00 83 1011.4
20260505213600 10 17 4.8 12.9 0.00 0.00 0.00 83 1011.5
20260505212700 10 12 4.8 16.1 0.00 0.00 0.00 83 1011.5
20260505212010 10 7 4.8 12.9 0.00 0.00 0.00 83 1011.5
20260505210901 10 23 4.8 12.9 0.00 0.00 0.00 83 1011.5
20260505210001 10 19 4.8 12.9 0.00 0.00 0.00 83 1011.6
20260505205100 10 14 6.4 12.9 0.00 0.00 0.00 82 1011.5
20260505204201 10 15 4.8 11.3 0.00 0.00 0.00 82 1011.4
20260505203301 10 18 4.8 11.3 0.00 0.00 0.00 82 1011.4
20260505202400 10 32 6.4 16.1 0.00 0.00 0.00 81 1011.4
20260505201500 10 33 3.2 8.0 0.00 0.00 0.00 81 1011.4
20260505200601 11 37 4.8 8.0 0.00 0.00 0.00 80 1011.3
20260505195700 11 43 3.2 9.7 0.00 0.00 0.00 79 1011.2
20260505194801 11 43 3.2 6.4 0.00 0.00 0.00 78 1011.1
20260505193904 11 51 4.8 11.3 0.00 0.00 0.00 77 1011.0
20260505193003 11 50 4.8 14.5 0.00 0.00 0.00 76 1010.9
20260505192315 11 56 6.4 12.9 0.00 0.00 0.00 75 1010.8
20260505191413 11 61 6.4 12.9 0.00 0.00 0.00 74 1010.8
20260505190301 12 65 8.0 16.1 0.00 0.00 0.00 72 1010.7
20260505185612 12 65 6.4 14.5 0.00 0.00 0.00 71 1010.7
20260505184501 12 64 6.4 12.9 0.00 0.00 0.00 70 1010.7
20260505183603 12 63 6.4 14.5 0.00 0.00 0.00 69 1010.7
20260505182701 12 62 6.4 16.1 0.00 0.00 0.00 68 1010.6
20260505181800 13 63 8.0 16.1 0.00 0.00 0.00 67 1010.6
20260505180900 13 62 6.4 16.1 0.00 0.00 0.00 67 1010.6
20260505180000 13 56 6.4 16.1 0.00 0.00 0.00 68 1010.5
20260505175100 13 60 8.0 17.7 0.00 0.00 0.00 67 1010.6
20260505174201 13 64 8.0 19.3 0.00 0.00 0.00 66 1010.5
20260505173303 14 60 8.0 16.1 0.00 0.00 0.00 66 1010.6
20260505172404 14 57 9.7 17.7 0.00 0.00 0.00 64 1010.5
20260505171713 14 58 9.7 17.7 0.00 0.00 0.00 65 1010.6
20260505170600 14 68 9.7 17.7 0.00 0.00 0.00 65 1010.6
20260505165701 15 74 8.0 19.3 0.00 0.00 0.00 64 1010.5
20260505165015 14 74 8.0 20.9 0.00 0.00 0.00 64 1010.7
20260505163901 14 85 9.7 19.3 0.00 0.00 0.00 66 1010.7
20260505163001 14 81 8.0 17.7 0.00 0.00 0.00 68 1010.6
20260505162312 13 89 9.7 17.7 0.00 0.00 0.00 69 1010.6
20260505161200 14 95 6.4 17.7 0.00 0.00 0.00 66 1010.6
20260505160512 14 98 8.0 16.1 0.00 0.00 0.00 67 1010.6
20260505152700 15 92 9.7 19.3 0.00 0.00 0.00 60 1010.8
20260505151800 15 97 9.7 19.3 0.00 0.00 0.00 59 1010.8
20260505150900 15 90 9.7 17.7 0.00 0.00 0.00 60 1010.9
20260505150213 15 97 8.0 17.7 0.00 0.00 0.00 61 1010.9
20260505140603 15 94 11.3 20.9 0.00 0.00 0.00 63 1011.2
20260505130300 17 94 11.3 19.3 0.00 0.00 0.00 62 1011.2
20260505124713 17 92 11.3 20.9 0.00 0.00 0.00 60 1011.1
20260505123603 17 96 9.7 22.5 0.00 0.00 0.00 61 1011.1
20260505122701 16 92 11.3 22.5 0.00 0.00 0.00 61 1011.2
20260505121800 17 95 9.7 19.3 0.00 0.00 0.00 61 1011.2
20260505120905 17 90 8.0 20.9 0.00 0.00 0.00 60 1011.1
20260505120003 17 97 9.7 19.3 0.00 0.00 0.00 58 1011.2
20260505115100 17 92 8.0 19.3 0.00 0.00 0.00 56 1011.3
20260505114200 17 97 8.0 14.5 0.00 0.00 0.00 55 1011.3
20260505113300 17 91 9.7 22.5 0.00 0.00 0.00 54 1011.3
20260505112401 17 90 11.3 19.3 0.00 0.00 0.00 54 1011.3
20260505111501 17 95 11.3 22.5 0.00 0.00 0.00 53 1011.4
20260505110600 17 91 11.3 20.9 0.00 0.00 0.00 52 1011.4
20260505101200 17 79 6.4 16.1 0.00 0.00 0.00 51 1011.6
20260505100302 17 56 4.8 17.7 0.00 0.00 0.00 51 1011.6
20260505095613 17 46 6.4 17.7 0.00 0.00 0.00 50 1011.6
20260505094500 17 72 6.4 16.1 0.00 0.00 0.00 52 1011.7
20260505093601 16 67 4.8 11.3 0.00 0.00 0.00 56 1011.7
20260505092701 16 61 6.4 16.1 0.00 0.00 0.00 58 1011.6
20260505091800 16 54 6.4 14.5 0.00 0.00 0.00 59 1011.6
20260505090900 16 54 4.8 14.5 0.00 0.00 0.00 61 1011.6
20260505090212 15 33 4.8 12.9 0.00 0.00 0.00 63 1011.7
20260505085100 15 65 6.4 14.5 0.00 0.00 0.00 61 1011.8
20260505084201 15 56 4.8 14.5 0.00 0.00 0.00 64 1011.8
20260505083514 14 58 4.8 16.1 0.00 0.00 0.00 67 1011.9
20260505082611 14 47 6.4 14.5 0.00 0.00 0.00 66 1011.8
20260505081500 13 36 6.4 14.5 0.00 0.00 0.00 68 1011.8
20260505080600 13 34 6.4 14.5 0.00 0.00 0.00 69 1011.9
20260505075703 13 49 8.0 14.5 0.00 0.00 0.00 70 1011.7
20260505074800 13 35 6.4 14.5 0.00 0.00 0.00 72 1011.7
20260505073901 12 38 8.0 12.9 0.00 0.00 0.00 74 1011.7
20260505073003 12 39 8.0 17.7 0.00 0.00 0.00 74 1011.7
20260505072100 12 33 9.7 16.1 0.00 0.00 0.00 75 1011.8
20260505071203 11 46 6.4 16.1 0.00 0.00 0.00 77 1012.0
20260505070301 11 24 6.4 16.1 0.00 0.00 0.00 78 1012.1
20260505065400 11 40 6.4 14.5 0.00 0.00 0.00 79 1012.1
20260505064501 11 34 6.4 12.9 0.00 0.00 0.00 82 1012.1
20260505063814 10 32 8.0 16.1 0.00 0.00 0.00 82 1012.2
20260505062701 10 35 6.4 14.5 0.00 0.00 0.00 85 1012.2
20260505061801 9 33 6.4 12.9 0.00 0.00 0.00 87 1012.2
20260505060901 8 44 6.4 12.9 0.00 0.00 0.00 90 1012.3
20260505060001 8 47 6.4 12.9 0.00 0.00 0.00 91 1012.3
20260505055103 7 55 4.8 9.7 0.00 0.00 0.00 92 1012.3
20260505054201 7 39 3.2 8.0 0.00 0.00 0.00 92 1012.3
20260505053259 7 18 1.6 8.0 0.00 0.00 0.00 93 1012.3
20260505052400 7 19 3.2 8.0 0.00 0.00 0.00 93 1012.2
20260505051501 7 22 3.2 6.4 0.00 0.00 0.00 93 1012.3
20260505050813 7 20 1.6 4.8 0.00 0.00 0.00 92 1012.3